When you browse on this site, cookies collect data to enhance your experience and personalize the content and advertising you see.
Visit our Privacy Policy to learn more. By continuing to use the site, you agree to this use of cookies and data.
  • In Lithuania
  • List of Countries
  • For 7 days
  • Water Temperature
  • Satellite Maps
  • Weather Map
  • Weather Widgets
  • user-avatar
    Login

    Hourly Weather Saint John's

    Today, 23 July, Tuesday

    Time Temperature Precipitation Wind Pressure Humidity
    00:00 +14°C° 0 mm 2 mps 751 mmHg 94%
    01:00 +13°C° 0 mm 3 mps 751 mmHg 94%
    02:00 +13°C° 0 mm 3 mps 752 mmHg 94%
    03:00 +13°C° 0 mm 3 mps 752 mmHg 94%
    04:00 +14°C° 0 mm 2 mps 753 mmHg 93%
    05:00 +14°C° 0 mm 2 mps 753 mmHg 92%
    06:00 +16°C° 0 mm 1 mps 754 mmHg 84%
    07:00 +19°C° 0 mm 1 mps 754 mmHg 77%
    08:00 +21°C° 0 mm 1 mps 755 mmHg 69%
    09:00 +20°C° 0 mm 2 mps 755 mmHg 67%
    10:00 +21°C° 0 mm 3 mps 755 mmHg 64%
    11:00 +21°C° 0 mm 4 mps 756 mmHg 61%
    12:00 +20°C° 0 mm 4 mps 756 mmHg 65%
    13:00 +19°C° 0 mm 4 mps 756 mmHg 69%
    14:00 +17°C° 0 mm 5 mps 757 mmHg 73%
    15:00 +17°C° 0.3 mm 4 mps 756 mmHg 79%
    16:00 +16°C° 0.3 mm 3 mps 756 mmHg 86%
    17:00 +14°C° 0.3 mm 2 mps 756 mmHg 92%
    18:00 +14°C° 0.6 mm 2 mps 756 mmHg 92%
    19:00 +13°C° 0.6 mm 3 mps 757 mmHg 93%
    20:00 +13°C° 0.6 mm 3 mps 757 mmHg 93%
    21:00 +13°C° 0.2 mm 5 mps 756 mmHg 92%
    22:00 +13°C° 0.2 mm 6 mps 756 mmHg 92%
    23:00 +11°C° 0.2 mm 7 mps 756 mmHg 91%

    Tomorrow, 24 July, Wednesday

    Time Temperature Precipitation Wind Pressure Humidity
    00:00 +11°C° 0.2 mm 7 mps 755 mmHg 93%
    01:00 +11°C° 0.2 mm 7 mps 754 mmHg 95%
    02:00 +12°C° 0.2 mm 7 mps 754 mmHg 97%
    03:00 +14°C° 0 mm 7 mps 753 mmHg 97%
    04:00 +15°C° 0 mm 6 mps 753 mmHg 98%
    05:00 +16°C° 0 mm 5 mps 753 mmHg 98%
    06:00 +17°C° 0 mm 6 mps 752 mmHg 96%
    07:00 +20°C° 0 mm 6 mps 752 mmHg 93%
    08:00 +21°C° 0 mm 7 mps 752 mmHg 91%
    09:00 +22°C° 0 mm 7 mps 752 mmHg 89%
    10:00 +22°C° 0 mm 7 mps 752 mmHg 86%
    11:00 +23°C° 0 mm 7 mps 751 mmHg 84%
    12:00 +22°C° 0 mm 7 mps 751 mmHg 83%
    13:00 +22°C° 0 mm 7 mps 751 mmHg 82%
    14:00 +22°C° 0 mm 7 mps 751 mmHg 82%
    15:00 +22°C° 0 mm 6 mps 752 mmHg 82%
    16:00 +21°C° 0 mm 6 mps 752 mmHg 82%
    17:00 +21°C° 0 mm 6 mps 753 mmHg 82%
    18:00 +20°C° 0 mm 6 mps 753 mmHg 84%
    19:00 +19°C° 0 mm 5 mps 754 mmHg 87%
    20:00 +19°C° 0 mm 4 mps 754 mmHg 90%
    21:00 +18°C° 0.2 mm 4 mps 754 mmHg 91%
    22:00 +17°C° 0.2 mm 4 mps 754 mmHg 93%
    23:00 +17°C° 0.2 mm 4 mps 754 mmHg 95%

    Day after tomorrow, 25 July, Thursday

    Time Temperature Precipitation Wind Pressure Humidity
    00:00 +16°C° 1.7 mm 3 mps 753 mmHg 96%
    01:00 +16°C° 1.7 mm 3 mps 753 mmHg 97%
    02:00 +16°C° 1.7 mm 2 mps 753 mmHg 98%
    03:00 +16°C° 3.5 mm 2 mps 753 mmHg 99%
    04:00 +16°C° 3.5 mm 1 mps 753 mmHg 99%
    05:00 +15°C° 3.5 mm 0 mps 752 mmHg 99%
    06:00 +16°C° 0.7 mm 1 mps 753 mmHg 99%
    07:00 +16°C° 0.7 mm 1 mps 753 mmHg 99%
    08:00 +16°C° 0.7 mm 1 mps 754 mmHg 99%
    09:00 +18°C° 0 mm 1 mps 754 mmHg 96%
    10:00 +19°C° 0 mm 1 mps 754 mmHg 94%
    11:00 +20°C° 0 mm 1 mps 754 mmHg 91%
    12:00 +20°C° 0 mm 1 mps 754 mmHg 87%
    13:00 +20°C° 0 mm 2 mps 754 mmHg 82%
    14:00 +21°C° 0 mm 2 mps 755 mmHg 77%
    15:00 +21°C° 0 mm 2 mps 755 mmHg 80%
    16:00 +20°C° 0 mm 2 mps 755 mmHg 82%
    17:00 +19°C° 0 mm 2 mps 755 mmHg 84%
    18:00 +18°C° 0 mm 2 mps 756 mmHg 89%
    19:00 +17°C° 0 mm 3 mps 756 mmHg 93%
    20:00 +16°C° 0 mm 3 mps 757 mmHg 97%
    21:00 +16°C° 0 mm 3 mps 757 mmHg 97%
    22:00 +14°C° 0 mm 3 mps 757 mmHg 97%
    23:00 +14°C° 0 mm 3 mps 756 mmHg 97%

    26 July, Friday

    Time Temperature Precipitation Wind Pressure Humidity
    00:00 +14°C° 0 mm 3 mps 756 mmHg 98%
    01:00 +14°C° 0 mm 4 mps 756 mmHg 98%
    02:00 +14°C° 0 mm 4 mps 756 mmHg 98%
    03:00 +14°C° 0 mm 3 mps 757 mmHg 97%
    04:00 +14°C° 0 mm 3 mps 757 mmHg 96%
    05:00 +16°C° 0 mm 3 mps 757 mmHg 95%
    06:00 +17°C° 0 mm 2 mps 757 mmHg 87%
    07:00 +18°C° 0 mm 2 mps 757 mmHg 79%
    08:00 +21°C° 0 mm 1 mps 757 mmHg 71%
    09:00 +21°C° 0 mm 2 mps 757 mmHg 67%
    10:00 +23°C° 0 mm 2 mps 757 mmHg 63%
    11:00 +24°C° 0 mm 2 mps 757 mmHg 59%
    12:00 +24°C° 0 mm 2 mps 758 mmHg 60%
    13:00 +22°C° 0 mm 3 mps 758 mmHg 61%
    14:00 +22°C° 0 mm 3 mps 758 mmHg 62%
    15:00 +21°C° 0 mm 3 mps 758 mmHg 67%
    16:00 +20°C° 0 mm 3 mps 758 mmHg 71%
    17:00 +19°C° 0 mm 3 mps 759 mmHg 75%
    18:00 +18°C° 0 mm 2 mps 759 mmHg 81%
    19:00 +16°C° 0 mm 2 mps 759 mmHg 87%
    20:00 +15°C° 0 mm 2 mps 760 mmHg 92%
    21:00 +14°C° 0 mm 1 mps 760 mmHg 92%
    22:00 +14°C° 0 mm 1 mps 760 mmHg 92%
    23:00 +14°C° 0 mm 1 mps 760 mmHg 92%

    27 July, Saturday

    Time Temperature Precipitation Wind Pressure Humidity
    00:00 +14°C° 0 mm 1 mps 761 mmHg 92%
    01:00 +14°C° 0 mm 1 mps 761 mmHg 92%
    02:00 +14°C° 0 mm 1 mps 761 mmHg 92%
    03:00 +14°C° 0 mm 1 mps 761 mmHg 91%
    04:00 +14°C° 0 mm 1 mps 761 mmHg 91%
    05:00 +14°C° 0 mm 1 mps 762 mmHg 91%
    06:00 +16°C° 0 mm 1 mps 762 mmHg 84%
    07:00 +19°C° 0 mm 1 mps 762 mmHg 76%
    08:00 +21°C° 0 mm 1 mps 763 mmHg 69%
    09:00 +23°C° 0 mm 2 mps 763 mmHg 64%
    10:00 +24°C° 0 mm 2 mps 763 mmHg 59%
    11:00 +25°C° 0 mm 2 mps 763 mmHg 54%
    12:00 +25°C° 0 mm 3 mps 763 mmHg 55%
    13:00 +24°C° 0 mm 3 mps 763 mmHg 56%
    14:00 +23°C° 0 mm 4 mps 763 mmHg 58%
    15:00 +22°C° 0 mm 3 mps 763 mmHg 61%
    16:00 +21°C° 0 mm 3 mps 763 mmHg 65%
    17:00 +20°C° 0 mm 3 mps 762 mmHg 69%
    18:00 +19°C° 0 mm 3 mps 763 mmHg 73%
    19:00 +18°C° 0 mm 3 mps 763 mmHg 77%
    20:00 +17°C° 0 mm 3 mps 763 mmHg 81%
    21:00 +16°C° 0 mm 3 mps 763 mmHg 81%
    22:00 +16°C° 0 mm 3 mps 763 mmHg 81%
    23:00 +14°C° 0 mm 3 mps 763 mmHg 80%

    28 July, Sunday

    Time Temperature Precipitation Wind Pressure Humidity
    00:00 +14°C° 0 mm 3 mps 763 mmHg 83%
    01:00 +14°C° 0 mm 3 mps 762 mmHg 86%
    02:00 +13°C° 0 mm 3 mps 762 mmHg 90%
    03:00 +13°C° 0 mm 3 mps 762 mmHg 90%
    04:00 +14°C° 0 mm 3 mps 762 mmHg 91%
    05:00 +14°C° 0 mm 3 mps 762 mmHg 91%
    06:00 +17°C° 0 mm 3 mps 762 mmHg 84%
    07:00 +19°C° 0 mm 3 mps 762 mmHg 77%
    08:00 +21°C° 0 mm 3 mps 762 mmHg 70%
    09:00 +22°C° 0 mm 4 mps 762 mmHg 66%
    10:00 +23°C° 0 mm 4 mps 761 mmHg 63%
    11:00 +25°C° 0 mm 5 mps 761 mmHg 59%
    12:00 +25°C° 0 mm 5 mps 761 mmHg 58%
    13:00 +26°C° 0 mm 5 mps 761 mmHg 58%
    14:00 +26°C° 0 mm 6 mps 760 mmHg 57%
    15:00 +24°C° 0 mm 6 mps 760 mmHg 61%
    16:00 +24°C° 0 mm 6 mps 760 mmHg 65%
    17:00 +23°C° 0 mm 6 mps 760 mmHg 69%
    18:00 +21°C° 0 mm 5 mps 760 mmHg 76%
    19:00 +19°C° 0 mm 5 mps 760 mmHg 83%
    20:00 +15°C° 0 mm 5 mps 760 mmHg 89%
    21:00 +15°C° 0 mm 5 mps 760 mmHg 90%
    22:00 +15°C° 0 mm 5 mps 760 mmHg 90%
    23:00 +15°C° 0 mm 5 mps 760 mmHg 91%
    Show more